This demonstration page uses our WeatherBlox Daily Observations layout. Learn more.

Left ArrowRight Arrow

39.01783, -85.05884

Hourly Observations for February 8, 2017

Temp ( °F °C ) Dew Point ( °F °C ) Humidity (%) Winds ( mph kmh ) Pressure ( in mb ) Visibility ( mi km ) Precip ( " mm )
12:52 am 00:52 Mostly Clear 48 8.9 43 6.1 83 83 W 9 15 29.66 1004 8 13 0.00 0.00
1:52 am 01:52 Cloudy 48 8.9 43 6.1 83 83 WSW 7 11 29.66 1004 8 13 0.00 0.00
2:18 am 02:18 Cloudy 48 9 45 7 87 87 W 12 19 29.68 1005 8 13 0.00 0.00
2:52 am 02:52 Cloudy 47 8.3 43 6.1 86 86 W 6 9 29.67 1005 8 13 0.00 0.00
3:52 am 03:52 Cloudy 48 8.9 44 6.7 86 86 W 7 11 29.68 1005 8 13 0.00 0.00
4:52 am 04:52 Cloudy 47 8.3 42 5.6 83 83 NW 9 15 29.70 1006 8 13 0.00 0.00
5:52 am 05:52 Cloudy 45 7.2 40 4.4 83 83 NNW 15 24 29.75 1007 9 14 0.00 0.00
6:43 am 06:43 Cloudy 42 5.6 38 3.3 85 85 NNW 16 26 29.83 1010 7 11 0.00 0.00
6:52 am 06:52 Cloudy with Mist and Fog 40 4.4 37 2.8 89 89 N 21 33 29.78 1009 5 8 0.00 0.00
6:59 am 06:59 Cloudy with Mist and Fog 39 3.9 37 2.8 93 93 NNW 20 31 29.83 1010 5 8 0.00 0.00
7:52 am 07:52 Cloudy with Mist and Fog 37 2.8 35 1.7 93 93 N 9 15 29.78 1009 5 8 0.00 0.00
8:14 am 08:14 Cloudy with Mist and Fog 37 2.8 34 1.1 89 89 N 9 15 29.83 1010 6 10 0.00 0.00
8:35 am 08:35 Cloudy with Mist and Fog 38 3.3 34 1.1 86 86 N 6 9 29.83 1010 6 10 0.00 0.00
8:52 am 08:52 Cloudy 38 3.3 33 0.6 83 83 Calm 29.81 1009 7 11 0.00 0.00
9:32 am 09:32 Cloudy 37 3 34 1 87 87 NNW 7 11 29.85 1011 7 11 0.00 0.00
9:52 am 09:52 Cloudy 38 3.3 33 0.6 83 83 NNW 8 13 29.83 1010 7 11 0.00 0.00
10:52 am 10:52 Cloudy 40 4.4 34 1.1 79 79 N 5 7 29.82 1010 7 11 0.00 0.00
11:41 am 11:41 Cloudy with Haze 40 4.4 34 1.1 79 79 N 14 22 29.88 1012 6 10 0.00 0.00
11:52 am 11:52 Cloudy with Haze 40 4.4 34 1.1 79 79 NNW 12 19 29.84 1011 6 10 0.00 0.00
12:24 pm 12:24 Cloudy with Haze 39 4 34 1 81 81 NNE 13 20 29.83 1010 6 10 0.00 0.00
12:52 pm 12:52 Cloudy with Haze 41 5 35 1.7 79 79 ENE 15 24 29.75 1008 6 10 0.00 0.00
1:52 pm 13:52 Cloudy 42 5.6 35 1.7 76 76 N 9 15 29.77 1008 7 11 0.00 0.00
2:52 pm 14:52 Cloudy with Haze 41 5 34 1.1 76 76 NNW 13 20 29.78 1008 6 10 0.00 0.00
3:52 pm 15:52 Cloudy with Haze 41 5 34 1.1 76 76 N 14 22 29.76 1008 6 10 0.00 0.00
4:52 pm 16:52 Cloudy with Haze 41 5 34 1.1 76 76 N 13 20 29.77 1008 6 10 0.00 0.00
5:52 pm 17:52 Cloudy 40 4.4 34 1.1 79 79 N 13 20 29.76 1008 7 11 0.00 0.00
6:27 pm 18:27 Cloudy with Light Rain 38 3.3 34 1.1 86 86 N 24 39 29.80 1009 9 14 0.00 0.03
6:52 pm 18:52 Cloudy with Light Rain 36 2.2 33 0.6 89 89 N 18 30 29.78 1008 9 14 0.00 0.03
7:03 pm 19:03 Cloudy with Light Snow 36 2 32 0 87 87 N 17 28 29.80 1009 3 5 0.00 0.00
7:42 pm 19:42 Cloudy with Light Snow 33 0.6 32 0 96 96 NNW 17 28 29.85 1011 2 2 0.03 0.76
7:52 pm 19:52 Cloudy with Light Snow 33 0.6 32 0 96 96 N 12 19 29.81 1009 2 2 0.04 1.02
8:03 pm 20:03 Cloudy with Light Snow 32 0 32 0 100 100 NNW 14 22 29.85 1011 1 2 0.00 0.00
8:33 pm 20:33 Cloudy with Light Snow 32 0 31 -0.6 96 96 N 17 28 29.85 1011 1 2 0.05 1.27
8:52 pm 20:52 Cloudy with Light Snow 32 0 31 -0.6 96 96 N 17 28 29.84 1011 2 2 0.05 1.27
9:35 pm 21:35 Cloudy with Light Wintry Mix 32 0 30 -1.1 92 92 N 20 31 29.88 1012 5 8 0.01 0.25
9:52 pm 21:52 Cloudy 32 0 30 -1.1 92 92 NNW 16 26 29.89 1012 8 13 0.01 0.25
10:18 pm 22:18 Cloudy 31 -0.6 29 -1.7 92 92 N 21 33 29.94 1014 10 16 0.00 0.00
10:52 pm 22:52 Cloudy 31 -0.6 28 -2.2 89 89 N 20 31 29.90 1013 10 16 0.00 0.00
11:52 pm 23:52 Cloudy 30 -1.1 26 -3.3 85 85 NNW 18 30 29.94 1014 10 16 0.00 0.00

Powered by AerisWeather